Location: Camerons Lookout
(40.9833°S, 175.9333°E)
Time: 04:38:26
(UTC+00:00)

Daily predictions for brighter satellites

Satellite Brightness Start Highest point End
(mag) Time Altitude Azimuth Time Altitude Azimuth Time Altitude Azimuth
Cosmos 2242 Rocket 4.0 08:20:51 10° S 08:25:21 51° E 08:29:48 10° NNE
Cosmos 2084 Rocket 4.0 08:28:27 10° SW 08:32:30 52° WNW 08:36:30 10° NNE
In-Cosmos 22 Rocket 4.3 08:28:47 10° S 08:34:29 87° W 08:39:58 10° N
Cosmos 292 Rocket 4.2 08:31:54 10° N 08:36:20 41° ENE 08:40:51 10° SE
IRAS Rocket 4.4 08:31:45 10° SSE 08:37:19 81° WSW 08:42:48 10° NNW
USA 306 3.3 08:36:16 10° WSW 08:40:01 47° NW 08:43:49 11° NNE
Helios 1A 3.6 08:36:41 10° NE 08:40:16 36° ESE 08:43:58 10° S
SPOT 5 3.1 08:36:36 10° SSE 08:41:19 47° E 08:45:44 10° N
CZ-4C R/B 3.2 08:37:16 10° SSW 08:42:05 29° SE 08:45:58 10° ENE
Cosmos 1441 Rocket 2.8 08:40:09 10° S 08:43:34 86° E 08:46:59 10° N
SJ 16-02 4.5 08:40:35 10° WNW 08:43:36 18° WSW 08:46:39 10° SSW
Lacrosse 5 rocket 3.4 08:43:42 10° S 08:45:30 14° SSE 08:47:19 10° ESE
CZ-4 R/B 1.4 08:44:28 10° SSE 08:48:23 55° E 08:52:12 10° N
SJ-6B 4.3 08:48:58 10° S 08:52:29 37° WSW 08:55:57 10° NW
ERS-1 Rocket 3.8 08:52:13 10° SSE 08:56:44 32° E 09:00:27 14° NNE
Cosmos 2369 Rocket 4.2 08:52:13 10° WNW 08:57:12 32° WSW 09:02:14 10° S
CZ-4B R/B 3.8 08:55:38 10° SSE 09:00:54 39° E 09:05:49 12° NNE
Atlas Centaur 2 3.1 08:58:11 10° NW 09:01:01 17° NNW 09:02:35 14° NNE
CZ-4B DEB 4.2 09:01:36 10° SSE 09:07:07 64° ENE 09:12:36 10° N
Cosmos 1733 Rocket 4.1 09:03:41 10° NNW 09:07:51 47° WSW 09:12:05 10° S
CZ-2C R/B 4.3 09:09:21 10° ESE 09:10:42 14° E 09:10:42 14° E
Terra 2.3 09:09:53 10° SSE 09:14:24 40° E 09:17:23 19° NNE
USA 186 2.1 09:12:44 10° SE 09:14:40 27° E 09:14:40 27° E
Feng Yun 1-1 Rocket 4.2 09:12:50 10° SSE 09:18:25 69° ENE 09:23:49 10° N
SME Rocket 4.5 09:17:06 17° E 09:18:40 22° ESE 09:21:41 10° SSE
PAYLOAD B 4.2 09:16:22 10° SSE 09:21:56 73° ENE 09:27:26 10° N
Delta 2 Rocket 3.7 09:21:49 10° WNW 09:25:17 35° N 09:26:12 30° NE
CBERS 1 LM4 rocket 4.3 09:21:03 10° SSE 09:25:52 87° E 09:30:37 10° NNW
CSL-04 Rocket 4.1 09:20:42 10° S 09:26:18 67° WSW 09:31:49 10° NNW
Spot 2 Rocket 4.4 09:22:21 10° SE 09:26:50 30° E 09:28:35 24° NE
Cosmos 2221 Rocket 3.6 09:25:36 10° S 09:30:09 74° E 09:32:38 26° NNE
Okean O Rocket 2.1 09:26:46 10° SSE 09:30:59 40° E 09:32:37 29° NE
Cosmos 1812 4.1 09:34:01 15° ESE 09:34:01 15° ESE 09:34:54 10° SE
SL-8 R/B 4.1 09:28:38 10° WNW 09:33:25 66° SSW 09:38:15 10° ESE
Cosmos 1025 Rocket 3.0 09:29:57 10° S 09:34:21 80° W 09:36:57 23° N
CZ-4B R/B 3.8 09:30:58 10° SE 09:34:22 27° E 09:34:36 26° ENE
ADEOS 3.5 09:33:22 10° SSE 09:38:40 89° ENE 09:43:42 11° NNW
Cosmos 1459 Rocket 4.1 09:38:51 23° NNE 09:42:49 59° E 09:49:04 10° SSE
NOSS 3-3 (C) 3.7 09:38:11 10° SW 09:44:28 84° SE 09:47:07 31° NE
Cosmos 1656 3.6 09:49:29 10° NNW 09:54:56 84° WSW 10:00:27 10° SSE
Cosmos 2173 Rocket 3.9 09:50:45 22° N 09:55:01 78° E 10:01:17 10° S
Tiangong -2.2 09:53:09 10° W 09:56:21 85° S 09:56:40 69° ESE
Cosmos 2297 Rocket 2.8 09:54:58 10° SSW 10:00:28 46° ESE 10:02:44 31° ENE
Cosmos 1980 Rocket 4.0 10:02:03 15° E 10:02:03 15° E 10:04:29 10° ESE
SL-24 DEB 4.3 10:01:13 43° NE 10:02:20 57° E 10:06:46 10° S
Cosmos 1782 Rocket 3.6 10:02:10 32° NNW 10:04:11 83° W 10:08:43 10° S
Cosmos 1300 Rocket 3.8 10:04:06 27° NNW 10:06:27 67° W 10:10:53 10° S
IRS-1A Rocket 4.2 10:00:47 10° SSE 10:06:30 89° ENE 10:10:12 23° NNW
BREEZE-M DEB (TANK) 4.2 10:03:31 10° NNW 10:08:17 62° NE 10:28:03 10° ESE
Cosmos 1400 Rocket 2.6 10:08:26 62° ENE 10:08:38 63° E 10:12:26 10° SSE
Cosmos 1975 Rocket 3.2 10:05:23 10° S 10:09:47 58° E 10:10:34 50° ENE
Cosmos 1486 Rocket 4.3 10:14:33 43° NE 10:15:18 46° ENE 10:20:18 10° SSE
USA 59 Rocket 2.7 10:14:35 25° ENE 10:16:01 26° ENE 10:23:41 10° SE
Cosmos 1867 4.3 10:13:49 10° SW 10:18:56 44° WNW 10:20:48 32° NNW
SPOT 3 Rocket 3.7 10:16:44 10° SSE 10:21:53 52° E 10:22:45 47° NE
CZ-4 R/B 4.4 10:20:27 10° SW 10:21:56 12° WSW 10:23:24 10° W
Okean-O 3.0 10:18:14 10° S 10:22:39 62° WSW 10:24:32 32° NW
Lacrosse 5 rocket 1.0 10:19:27 10° SW 10:22:25 67° SW 10:22:25 67° SW
USA 290 2.7 10:19:50 10° SSW 10:22:43 57° WSW 10:22:43 57° WSW
Cosmos 1697 Rocket 2.7 10:24:13 46° NNE 10:25:34 58° ENE 10:31:09 10° SSE
CZ-4C R/B 2.6 10:25:48 10° SW 10:30:17 34° WNW 10:30:57 32° NW
USA 238 DEB 4.1 10:33:53 10° NW 10:42:02 77° SW 10:49:35 10° SSE
USA 238 4.1 10:33:59 10° NW 10:42:09 77° SW 10:49:42 10° SSE
Cosmos 2208 Rocket 4.1 10:37:04 10° SSW 10:42:25 64° ESE 10:43:18 54° ENE
CZ-2C R/B 4.1 10:39:58 10° SSW 10:42:42 26° WSW 10:43:09 25° W
Cosmos 1869 4.4 10:45:44 31° W 10:46:06 32° WSW 10:49:20 10° SSW
Ariane Rocket 2.8 10:43:55 10° SSE 10:49:02 77° ENE 10:49:39 67° NNE
Terra 4.0 10:48:01 10° SSW 10:51:38 22° WSW 10:55:11 10° WNW
Cosmos 1346 Rocket 3.1 10:48:16 10° S 10:51:21 56° S 10:51:21 56° S
Cosmos 2016 Rocket 4.3 10:49:33 33° NNW 10:52:26 65° W 10:58:49 10° S
Cosmos 1777 Rocket 3.9 10:51:43 65° N 10:52:30 81° ENE 10:57:50 10° SSE
Cosmos 1725 Rocket 4.4 10:49:48 30° NNW 10:52:54 60° W 10:59:13 10° S
Okean 1 Rocket 4.1 10:56:08 35° ESE 10:56:08 35° ESE 10:59:28 10° SSE
DELTA 2 DEB (DPAF) 4.3 10:56:35 54° SSE 10:56:35 54° SSE 10:59:43 10° S
Cosmos 2227 Rocket 2.5 10:50:32 10° SSW 10:56:10 55° ESE 10:57:16 47° ENE
Cosmos 1862 3.9 10:52:47 10° S 10:55:39 49° SSE 10:55:39 49° SSE
SL-24 R/B - RUBIN 2 4.3 10:55:30 32° NW 10:58:13 75° SW 11:04:24 10° SSE
Landsat 5 4.1 10:59:04 42° SE 10:59:04 42° SE 11:02:08 10° S
Cosmos 1570 Rocket 4.1 10:55:32 10° SSW 11:00:50 64° WNW 11:01:33 57° NW
CZ-4B R/B 4.3 10:59:17 10° S 11:03:58 43° WSW 11:05:47 30° WNW
Cosmos 2061 Rocket 4.0 11:02:12 48° NNW 11:04:08 82° W 11:10:32 10° S
Iridium 4 Rocket 4.4 11:06:44 33° ESE 11:06:44 33° ESE 11:10:28 10° SSE
Okean O Rocket 4.0 11:03:39 10° SSW 11:06:51 20° WSW 11:09:52 11° WNW
Meteor 2-12 Rocket 4.4 11:01:12 10° S 11:07:24 74° E 11:08:30 60° NE
IRS-1C Rocket 4.4 11:05:32 10° S 11:10:49 64° WSW 11:12:08 48° NW
Okean 2 Rocket 3.4 11:11:28 59° SE 11:11:28 59° SE 11:15:17 10° SSE
CZ-2C R/B 3.5 11:13:08 47° E 11:13:40 49° ESE 11:18:42 10° S
Cosmos 1536 Rocket 3.8 11:10:38 10° S 11:14:41 68° SSE 11:14:41 68° SSE
Cosmos 2058 3.8 11:16:16 10° SSW 11:19:35 43° WSW 11:19:35 43° WSW
Cosmos 2263 Rocket 2.6 11:15:42 10° SSW 11:21:10 50° ESE 11:21:59 47° E
Cosmos 1315 Rocket 4.2 11:23:56 32° SE 11:23:56 32° SE 11:26:16 10° SSE
Cosmos 1503 Rocket 4.4 11:25:17 51° WNW 11:26:20 62° WSW 11:31:43 10° SSE
Meteor 2-3 Rocket 3.9 11:20:42 10° S 11:26:26 58° ESE 11:26:56 56° E
USA 267 4.4 11:21:00 10° ESE 11:24:55 26° E 11:24:55 26° E
Cosmos 990 Rocket 3.8 11:26:52 81° E 11:26:52 81° E 11:31:58 10° SSE
Cosmos 2369 4.1 11:33:46 49° E 11:33:46 49° E 11:38:48 10° SE
Cosmos 44 Rocket 3.4 11:29:31 10° SSW 11:33:44 65° SSE 11:33:44 65° SSE
Gbstr 26 Del rocket 4.4 11:29:27 10° SW 11:35:15 59° SSE 11:38:37 30° E
Helios 1B rocket 3.6 11:33:01 10° S 11:35:34 35° SSW 11:35:34 35° SSW
COSMOS 2455 2.7 11:37:33 71° NE 11:37:42 71° ENE 11:43:42 10° SSE
Cosmos 2297 Rocket 3.6 11:39:36 10° SW 11:44:10 25° WNW 11:44:31 25° WNW
Cosmos 1980 Rocket 2.3 11:43:45 63° WNW 11:44:32 72° WSW 11:50:17 10° SSE
Cosmos 1356 Rocket 4.4 11:46:00 43° S 11:46:00 43° S 11:48:48 10° S
ARIANE 5 R/B 4.1 11:46:52 10° SSE 11:49:29 27° ESE 11:49:29 27° ESE
